Regional Weather Roundup
Issued by NWS State College, PA

Home | Current Version | Previous Version | Text Only | Print | Product List | Glossary On
Versions: 1 2 3 4 5 6 7 8 9 10 11 12 13 14 15 16 17 18 19 20 21 22 23 24 25 26 27 28 29 30 31 32 33 34 35 36 37 38 39 40 41 42 43 44 45 46 47 48 49 50
174
ASUS41 KCTP 290903
RWRCTP

REGIONAL WEATHER ROUNDUP
NATIONAL WEATHER SERVICE STATE COLLEGE PA
500 AM EDT SUN MAY 29 2016

Note: "fair" indicates few or no clouds below 12,000 feet with no
significant weather and/or obstructions to visibility.

* = STATION THAT DOES NOT REPORT PRECIPITATION /E.G. RAIN...SNOW...ETC/
    THUNDER OR FOG.

PAZ002>004-007>009-013>016-020>023-029>032-291000-
WESTERN PENNSYLVANIA

CITY           SKY/WX    TMP DP  RH WIND       PRES   REMARKS
ERIE           MOCLDY    71  64  78 S5        30.08F
MEADVILLE      CLOUDY    66  64  93 SE5       30.12F
FRANKLIN*      CLOUDY    64  61  88 CALM      30.15S
NEW CASTLE     FAIR      63  63 100 CALM      30.12S FOG
BEAVER COUNTY  NOT AVBL
BUTLER*        CLOUDY   N/A N/A N/A CALM      30.14F
PITTSBURGH INT CLOUDY    68  64  87 CALM      30.11S
PITTSBURGH     CLOUDY    70  63  78 SE3       30.11S
INDIANA*       PTCLDY    64  64 100 CALM      30.16S
LATROBE        MOCLDY    64  64 100 CALM      30.13S FOG
WASHINGTON CO* CLOUDY    63  61  94 CALM      30.12S
$$

PAZ004>006-010>012-017>019-024>028-033>037-041-042-045-046-049>053-291000-
CENTRAL PENNSYLVANIA

CITY           SKY/WX    TMP DP  RH WIND       PRES   REMARKS
BRADFORD       MOCLDY    63  61  93 CALM      30.16S FOG
DUBOIS         CLOUDY    67  63  87 CALM      30.14S
CLEARFIELD     CLOUDY    65  62  90 CALM      30.15S FOG
JOHNSTOWN      PTCLDY    67  57  70 CALM      30.16S
ALTOONA        MOCLDY    65  61  87 CALM      30.15S
STATE COLLEGE  CLOUDY    66  64  91 CALM      30.13S
WILLIAMSPORT   CLEAR     68  65  90 CALM      30.10S
SELINSGROVE    CLEAR     68  65  90 CALM      30.12S
FT INDIANTOWN  CLEAR     64  64 100 E1        30.13S
CAPITAL CITY   CLEAR     69  63  81 CALM      30.12S
HARRISBURG     CLEAR     71  63  75 S6        30.12S
YORK           CLEAR     65  60  84 VRB3      30.13S
$$

PAZ038>040-043-044-047-048-054-055-060>062-067>071-291000-
EASTERN PENNSYLVANIA

CITY           SKY/WX    TMP DP  RH WIND       PRES   REMARKS
SCRANTON       PTCLDY    68  65  90 E3        30.13S
MOUNT POCONO   CLEAR     64  61  90 NW5       30.18S
ALLENTOWN      CLEAR     66  61  84 CALM      30.13S
QUAKERTOWN*    SUNNY     64  57  77 CALM      30.15S
READING        CLEAR     69  55  60 S5        30.12S
LANCASTER      CLEAR     62  56  80 CALM      30.14R
COATESVILLE    SUNNY     64  59  82 CALM      30.17R
POTTSTOWN      CLEAR     64  57  78 CALM      30.16R
BLUE BELL      CLEAR     61  59  94 CALM      30.14S
DOYLESTOWN     PTCLDY    65  56  72 CALM      30.14R
WILLOW GROVE   NOT AVBL
NORTH PHILA    CLEAR     68  59  73 S3        30.16R
PHILADELPHIA   MOCLDY    67  56  67 S6        30.15R
$$




USA.gov is the U.S. government's official web portal to all federal, state and local government web resources and services.